Regional Weather Roundup
Issued by NWS

Home | Current Version | Previous Version | Graphics & Text | Print | Product List | Glossary On
Versions: 1 2 3 4 5 6 7 8 9 10 11 12 13 14 15 16 17 18 19 20 21 22 23 24 25 26 27 28 29 30 31 32 33 34 35 36 37 38 39 40 41 42 43 44 45 46 47 48 49 50
000
ASUS43 KMPX 251901
RWRMN
WEATHER ROUNDUP FOR MINNESOTA
NATIONAL WEATHER SERVICE TWIN CITIES/CHANHASSEN MN
200 PM CDT FRI JUL 25 2014


NOTE: "FAIR" INDICATES FEW OR NO CLOUDS BELOW 12,000 FEET WITH NO
SIGNIFICANT WEATHER AND/OR OBSTRUCTIONS TO VISIBILITY. N/A MEANS
CURRENT SKY AND/OR WEATHER CONDITIONS ARE NOT AVAILABLE.

MNZ060>063-068>070-252000-
   Twin Cities Metro

CITY           SKY/WX    TMP DP  RH WIND       PRES   REMARKS
TWIN CITIES    PTSUNNY   79  66  64 S13       29.79F
ST PAUL        PTSUNNY   77  67  71 S8        29.80F
CRYSTAL        PTSUNNY   80  67  64 S13G21    29.77F
BLAINE         PTSUNNY   79  70  73 S12G17    29.79F
LAKEVILLE      PTSUNNY   77  66  69 S12G17    29.80S
EDEN PRAIRIE   CLOUDY    79  68  69 S14G20    29.78F
SOUTH ST PAUL  PTSUNNY   78  67  68 S7        29.80S
LAKE ELMO      CLOUDY    73  68  83 S8        29.82F
$$
MNZ001>005-007-008-013>017-022>024-027-028-252000-
   Northwest Minnesota

CITY           SKY/WX    TMP DP  RH WIND       PRES   REMARKS
BEMIDJI        CLOUDY    73  65  76 NW5       29.77S
HALLOCK        SUNNY     79  68  69 SW9       29.71F
ROSEAU         SUNNY     75  66  73 SE6       29.73F
WARROAD        CLOUDY    73  66  78 SE5       29.74S
THIEF RVR FALL CLOUDY    73  66  78 W7        29.75S
CROOKSTON      MOSUNNY   73  66  78 W6        29.75F
FOSSTON        PTSUNNY   75  64  69 CALM      29.77F
DETROIT LAKES  PTSUNNY   73  66  78 W3        29.78F
MOORHEAD       MOSUNNY   77  70  78 N5        29.76F
PARK RAPIDS    CLOUDY    78  66  66 W7        29.77F
$$
MNZ006-009>011-018-025>026-252000-
   North Central Minnesota

CITY           SKY/WX    TMP DP  RH WIND       PRES   REMARKS
BAUDETTE       CLOUDY    73  64  73 E3        29.75F
FLAG ISLAND    PTSUNNY   72  64  78 S7        29.72F
INTL FALLS     CLOUDY    73  63  70 SW3       29.76S
WASKISH        CLOUDY    73  64  73 CALM      29.76F
BIG FORK       SUNNY     72  63  73 SW2       29.79S
LONGVILLE      PTSUNNY   77  66  69 W5        29.77F
GRAND RAPIDS   CLOUDY    72  63  73 NW5       29.79S
CRANE LAKE     CLOUDY    72  63  73 CALM      29.78S
ORR            CLOUDY    70  61  73 SW5       29.76S
COOK           CLOUDY    70  63  78 S3        29.79S VSB 1
$$
MNZ012-019>021-037-252000-
   Northeast Minnesota

CITY           SKY/WX    TMP DP  RH WIND       PRES   REMARKS
DULUTH         CLOUDY    68  62  81 SW6       29.81F
ELY            CLOUDY    72  61  68 S6        29.79F
HIBBING        CLOUDY    71  63  75 W3        29.79F
EVELETH        CLOUDY    72  64  78 SW6       29.80S
DULUTH HARBOR  CLOUDY    61  57  88 E3        29.80F
TWO HARBORS    CLOUDY    70  63  78 S6        29.78F
SILVER BAY     MOSUNNY   70  64  83 SE5       29.78F
GRAND MARAIS     N/A     57  54  89 CALM      29.80F
G MARAIS ARPRT DRIZZLE   63  57  82 S5        29.84F
$$
MNZ029>031-032-039>041-046>048-054>057-064-252000-
   West Central Minnesota

CITY           SKY/WX    TMP DP  RH WIND       PRES   REMARKS
FERGUS FALLS   CLOUDY    72  64  78 N7        29.76S
WHEATON        MOSUNNY   73  66  78 W2        29.78S
MORRIS         MOSUNNY   75  70  83 W6        29.76S
ALEXANDRIA     CLOUDY    75  67  76 SW8       29.80R
ELBOW LAKE     CLOUDY    73  67  82 SW5       29.77S
WADENA         PTSUNNY   75  66  73 W5        29.77F
GLENWOOD       MOSUNNY   75  66  73 SW8       29.79R
APPLETON       PTSUNNY   82  66  57 W5        29.75S
BENSON         CLOUDY    79  70  73 W7        29.76S
ORTONVILLE     CLOUDY    79  66  65 CALM      29.76S
MADISON        SUNNY     82  72  69 SW5       29.76S
WILLMAR        FAIR      79  66  65 S3        29.78F
$$
MNZ033>034-036-042>043-049>051-058-059-252000-
   Central Minnesota

CITY           SKY/WX    TMP DP  RH WIND       PRES   REMARKS
ST CLOUD       PTSUNNY   83  67  58 SW13      29.76F
SAUK CENTRE    CLOUDY    77  67  70 SW9       29.78R
PAYNESVILLE    PTSUNNY   76  66  70 S12       29.78F HAZE
AITKIN         MOSUNNY   81  70  69 W3        29.76F
PINE RIVER     MOSUNNY   79  66  65 SW7       29.81S
BRAINERD       PTSUNNY   77  65  66 W6        29.78S
STAPLES        CLOUDY    75  64  69 SW3       29.78S
LONG PRAIRIE   CLOUDY    73  66  78 S8        29.79R
LITTLE FALLS   PTSUNNY   77  64  65 S6        29.78S
LITCHFIELD     PTSUNNY   79  70  73 SW6       29.79S
BUFFALO        PTSUNNY   80  66  62 S10G17    29.79S
MAPLE LAKE     PTSUNNY   80  69  70 S6        29.78S
$$
MNZ037-044-045-052-053-252000-
   East Central Minnesota

CITY           SKY/WX    TMP DP  RH WIND       PRES   REMARKS
PRINCETON      CLOUDY    81  68  65 S9        29.78S
MORA           PTSUNNY   75  64  69 SW6       29.80F
CAMBRIDGE      MOSUNNY   81  66  61 SW6       29.77S
RUSH CITY      CLOUDY    75  66  73 SW6       29.80S
MOOSE LAKE     CLOUDY    75  64  69 SW5       29.77S
HINCKLEY       CLOUDY    73  68  83 S7        29.80R
CLOQUET        CLOUDY    70  63  78 E3        29.81R
MCGREGOR       CLOUDY    77  66  69 W5        29.78S
$$
MNZ071>073-080-081-089-090-097-098-252000-
   Southwest Minnesota

CITY           SKY/WX    TMP DP  RH WIND       PRES   REMARKS
MONTEVIDEO     CLOUDY    82  73  74 W5        29.77S
GRANITE FALLS  SUNNY     81  70  69 SW8       29.77F
CANBY          CLOUDY    82  69  64 W8        29.78R
MARSHALL       SUNNY     82  70  65 W10       29.76S
REDWOOD FALLS  MOSUNNY   82  68  62 S12       29.77S
OLIVIA         PTSUNNY   79  68  69 S8        29.77S
PIPESTONE      MOSUNNY   79  70  73 W8        29.80S
WINDOM         MOSUNNY   81  66  61 S12       29.79F
WORTHINGTON    MOSUNNY   79  70  73 S8        29.81S
JACKSON        MOSUNNY   79  64  61 SW12      29.81S
TRACY          SUNNY     81  70  69 SW12      29.78S
SLAYTON        SUNNY     79  69  69 CALM      29.80F
$$
MNZ065>067-074>077-082>085-091>093-252000-
   South Central Minnesota

CITY           SKY/WX    TMP DP  RH WIND       PRES   REMARKS
MANKATO        CLOUDY    79  64  61 S14G23    29.80S
NEW ULM        MOSUNNY   79  68  69 S10G17    29.79R
ST JAMES       PTSUNNY   81  64  57 S10G17    29.80R
FAIRMONT       PTSUNNY   79  61  53 S15       29.80S
GLENCOE        PTSUNNY   80  66  62 S9        29.78F
FARIBAULT      PTSUNNY   82  63  51 S9        29.81S
OWATONNA       MOSUNNY   81  66  61 S13       29.81F
WASECA         CLOUDY    77  63  61 S15G21    29.82S
ALBERT LEA     PTSUNNY   79  66  65 S15       29.82R
$$
MNZ078>079-086>088-094>096-252000-
   Southeast Minnesota

CITY           SKY/WX    TMP DP  RH WIND       PRES   REMARKS
ROCHESTER      MOSUNNY   77  66  68 S13G21    29.85S
RED WING       CLOUDY    79  66  65 SW3       29.81F
STANTON        PTSUNNY   79  67  64 S6        29.80S
DODGE CENTER   MOSUNNY   77  66  69 SW13      29.83S
WINONA         CLOUDY    73  63  68 S5        29.85F
AUSTIN         MOSUNNY   79  66  65 S16       29.83S
PRESTON        PTSUNNY   74  69  83 S14       29.86F
$$
ABBREVIATIONS USED IN REMARKS
   TC - TEMPERATURES IN CELSIUS
  WCI - WIND CHILL INDEX
   HX - HEAT INDEX
  VSB - VISIBILITY
$$


USA.gov is the U.S. government's official web portal to all federal, state and local government web resources and services.